Time,TemperatureF,DewpointF,PressureIn,WindDirection,WindDirectionDegrees,WindSpeedMPH,WindSpeedGustMPH,Humidity,HourlyPrecipIn,Conditions,Clouds,dailyrainin,SoftwareType,DateUTC
2013-06-07 11:01:00,68.1,56.7,29.80,ESE,113,0.0,0.0,67,0.00,,,0.00,WUHU216HW,2013-06-07 16:01:00,
2013-06-07 11:02:00,68.1,56.7,29.80,East,90,3.8,3.8,67,0.00,,,0.00,WUHU216HW,2013-06-07 16:02:00,
2013-06-07 11:07:00,67.6,55.4,29.80,East,90,0.0,3.8,65,0.00,,,0.00,WUHU216HW,2013-06-07 16:07:00,
2013-06-07 16:22:00,74.1,51.7,29.75,NE,45,0.0,0.0,46,0.00,,,0.00,WUHU216HW,2013-06-07 21:22:00,
2013-06-07 16:27:00,73.0,50.7,29.75,ENE,68,0.0,0.0,46,0.00,,,0.00,WUHU216HW,2013-06-07 21:27:00,
2013-06-07 16:32:00,72.3,50.8,29.75,ENE,68,0.0,0.0,47,0.00,,,0.00,WUHU216HW,2013-06-07 21:32:00,
2013-06-07 16:37:00,71.7,50.9,29.75,NNE,23,0.0,0.0,48,0.00,,,0.00,WUHU216HW,2013-06-07 21:37:00,
2013-06-07 16:42:00,72.1,51.2,29.75,ENE,68,0.0,0.0,48,0.00,,,0.00,WUHU216HW,2013-06-07 21:42:00,
2013-06-07 16:47:00,73.0,52.0,29.75,ESE,113,0.0,0.0,48,0.00,,,0.00,WUHU216HW,2013-06-07 21:47:00,
2013-06-07 16:53:00,73.7,53.3,29.75,ESE,113,0.0,0.0,49,0.00,,,0.00,WUHU216HW,2013-06-07 21:53:00,
2013-06-07 16:58:00,74.4,54.6,29.74,ESE,113,0.0,0.0,50,0.00,,,0.00,WUHU216HW,2013-06-07 21:58:00,
2013-06-07 17:03:00,75.3,54.3,29.75,ESE,113,0.0,0.0,48,0.00,,,0.00,WUHU216HW,2013-06-07 22:03:00,
2013-06-07 17:08:00,75.9,55.4,29.74,ESE,113,0.0,0.0,49,0.00,,,0.00,WUHU216HW,2013-06-07 22:08:00,
2013-06-07 17:13:00,75.9,56.0,29.74,ESE,113,0.0,0.0,50,0.00,,,0.00,WUHU216HW,2013-06-07 22:13:00,
2013-06-07 17:18:00,75.7,54.0,29.74,SSE,158,0.0,0.0,47,0.00,,,0.00,WUHU216HW,2013-06-07 22:18:00,
2013-06-07 17:24:00,75.5,54.5,29.74,SE,135,0.0,0.0,48,0.00,,,0.00,WUHU216HW,2013-06-07 22:24:00,
2013-06-07 17:30:00,75.3,52.5,29.74,NE,45,0.0,5.8,45,0.00,,,0.00,WUHU216HW,2013-06-07 22:30:00,
2013-06-07 17:35:00,75.0,52.1,29.74,East,90,0.0,5.8,45,0.00,,,0.00,WUHU216HW,2013-06-07 22:35:00,
2013-06-07 17:40:00,74.4,51.0,29.74,NE,45,0.0,0.0,44,0.00,,,0.00,WUHU216HW,2013-06-07 22:40:00,
2013-06-07 17:45:00,73.2,49.8,29.74,NE,45,0.0,0.0,44,0.00,,,0.00,WUHU216HW,2013-06-07 22:45:00,
2013-06-07 17:50:00,72.1,49.4,29.74,ENE,68,0.0,0.0,45,0.00,,,0.00,WUHU216HW,2013-06-07 22:50:00,
2013-06-07 17:55:00,71.4,49.4,29.74,NE,45,0.0,0.0,46,0.00,,,0.00,WUHU216HW,2013-06-07 22:55:00,
2013-06-07 18:00:00,70.7,48.2,29.74,NE,45,0.0,0.0,45,0.00,,,0.00,WUHU216HW,2013-06-07 23:00:00,
2013-06-07 18:05:00,70.5,49.8,29.74,NE,45,0.0,0.0,48,0.00,,,0.00,WUHU216HW,2013-06-07 23:05:00,
2013-06-07 18:10:00,70.3,50.8,29.73,NE,45,0.0,0.0,50,0.00,,,0.00,WUHU216HW,2013-06-07 23:10:00,
2013-06-07 18:15:00,70.1,51.1,29.73,NE,45,0.0,0.0,51,0.00,,,0.00,WUHU216HW,2013-06-07 23:15:00,
2013-06-07 18:20:00,73.5,54.7,29.73,NE,45,0.0,0.0,52,0.00,,,0.00,WUHU216HW,2013-06-07 23:20:00,
2013-06-07 18:25:00,78.6,53.5,29.73,NE,45,0.0,0.0,42,0.00,,,0.00,WUHU216HW,2013-06-07 23:25:00,
2013-06-07 18:30:00,77.5,52.6,29.74,East,90,0.0,0.0,42,0.00,,,0.00,WUHU216HW,2013-06-07 23:30:00,
2013-06-07 18:35:00,75.2,50.5,29.74,NNE,23,0.0,0.0,42,0.00,,,0.00,WUHU216HW,2013-06-07 23:35:00,
2013-06-07 18:41:00,74.3,50.2,29.74,NNE,23,0.0,0.0,43,0.00,,,0.00,WUHU216HW,2013-06-07 23:41:00,
2013-06-07 18:46:00,74.3,49.6,29.74,NE,45,0.0,0.0,42,0.00,,,0.00,WUHU216HW,2013-06-07 23:46:00,
2013-06-07 18:51:00,74.1,49.4,29.74,ENE,68,0.0,0.0,42,0.00,,,0.00,WUHU216HW,2013-06-07 23:51:00,
2013-06-07 18:56:00,73.9,49.3,29.74,East,90,0.0,1.5,42,0.00,,,0.00,WUHU216HW,2013-06-07 23:56:00,
2013-06-07 19:01:00,72.5,48.6,29.74,East,90,0.0,1.5,43,0.00,,,0.00,WUHU216HW,2013-06-08 00:01:00,
2013-06-07 19:06:00,71.4,48.8,29.74,East,90,0.0,0.0,44,0.00,,,0.00,WUHU216HW,2013-06-08 00:06:00,
2013-06-07 19:11:00,70.5,48.0,29.74,East,90,0.0,0.0,45,0.00,,,0.00,WUHU216HW,2013-06-08 00:11:00,
2013-06-07 19:16:00,69.6,47.8,29.74,East,90,0.0,0.0,46,0.00,,,0.00,WUHU216HW,2013-06-08 00:16:00,
2013-06-07 19:21:00,68.7,47.0,29.74,NE,45,0.0,0.0,46,0.00,,,0.00,WUHU216HW,2013-06-08 00:21:00,
2013-06-07 19:26:00,67.8,46.7,29.74,NE,45,0.0,0.0,47,0.00,,,0.00,WUHU216HW,2013-06-08 00:26:00,
2013-06-07 19:32:00,67.1,46.1,29.74,NE,45,0.0,0.0,47,0.00,,,0.00,WUHU216HW,2013-06-08 00:32:00,
2013-06-07 19:37:00,66.2,46.5,29.73,NE,45,0.0,0.0,49,0.00,,,0.00,WUHU216HW,2013-06-08 00:37:00,
2013-06-07 19:42:00,65.6,46.5,29.74,NE,45,0.0,0.0,50,0.00,,,0.00,WUHU216HW,2013-06-08 00:42:00,
2013-06-07 19:47:00,65.1,46.5,29.74,NE,45,0.0,0.0,51,0.00,,,0.00,WUHU216HW,2013-06-08 00:47:00,
2013-06-07 19:52:00,64.5,46.4,29.74,NE,45,0.0,0.0,52,0.00,,,0.00,WUHU216HW,2013-06-08 00:52:00,
2013-06-07 19:57:00,64.0,46.4,29.74,NE,45,0.0,0.0,53,0.00,,,0.00,WUHU216HW,2013-06-08 00:57:00,
2013-06-07 20:02:00,63.6,46.1,29.74,NE,45,0.0,0.0,53,0.00,,,0.00,WUHU216HW,2013-06-08 01:02:00,
2013-06-07 20:08:00,63.3,46.2,29.74,NE,45,0.0,0.0,54,0.00,,,0.00,WUHU216HW,2013-06-08 01:08:00,
2013-06-07 20:13:00,63.1,46.6,29.74,NE,45,0.0,0.0,55,0.00,,,0.00,WUHU216HW,2013-06-08 01:13:00,
2013-06-07 20:18:00,62.9,46.4,29.74,NE,45,0.0,0.0,54,0.00,,,0.00,WUHU216HW,2013-06-08 01:18:00,
2013-06-07 20:23:00,62.7,46.2,29.74,NE,45,0.0,0.0,55,0.00,,,0.00,WUHU216HW,2013-06-08 01:23:00,
2013-06-07 20:28:00,62.4,46.4,29.74,NE,45,0.0,0.0,56,0.00,,,0.00,WUHU216HW,2013-06-08 01:28:00,
2013-06-07 20:34:00,61.8,46.4,29.74,NE,45,0.0,0.0,57,0.00,,,0.00,WUHU216HW,2013-06-08 01:34:00,
2013-06-07 20:39:00,61.3,46.9,29.74,NE,45,0.0,0.0,59,0.00,,,0.00,WUHU216HW,2013-06-08 01:39:00,
2013-06-07 20:44:00,60.6,46.7,29.74,NE,45,0.0,0.0,60,0.00,,,0.00,WUHU216HW,2013-06-08 01:44:00,
2013-06-07 20:49:00,60.2,46.8,29.74,NE,45,0.0,0.0,61,0.00,,,0.00,WUHU216HW,2013-06-08 01:49:00,
2013-06-07 20:54:00,59.9,46.8,29.74,NE,45,0.0,0.0,62,0.00,,,0.00,WUHU216HW,2013-06-08 01:54:00,